Location: Gleizolles
(44.4833°N, 6.7667°E)
Time: 14:12:07
(UTC+00:00)

deb Explorer IX - Pass Details

Date: 30 June 2024
Orbit: 510 x 878 km, 38.7° (Epoch: 21 July)

Event Time Altitude Azimuth Distance (km) Brightness Sun altitude
Rises 08:52:12 0° 267° (W) 2,733 ? 50.3°
Reaches altitude 10° 08:54:45 10° 251° (WSW) 1,889 ? 50.7°
Maximum altitude 08:58:07 22° 200° (SSW) 1,348 ? 51.3°
Drops below altitude 10° 09:01:45 10° 150° (SSE) 2,056 ? 51.9°
Sets 09:04:40 0° 136° (SE) 3,046 ? 52.4°
